Regional Weather Roundup
Issued by NWS

Home | Current Version | Previous Version | Graphics & Text | Print | Product List | Glossary On
Versions: 1 2 3 4 5 6 7 8 9 10 11 12 13 14 15 16 17 18 19 20 21 22 23 24 25 26 27 28 29 30 31 32 33 34 35 36 37 38 39 40 41 42 43 44 45 46 47 48 49 50
000
ASUS43 KBIS 170002
RWRND

NORTH DAKOTA REGIONAL WEATHER ROUNDUP
NATIONAL WEATHER SERVICE BISMARCK ND
700 PM CDT WED AUG 16 2017

NOTE: "FAIR" INDICATES FEW OR NO CLOUDS BELOW 12,000 FEET WITH NO
SIGNIFICANT WEATHER AND/OR OBSTRUCTIONS TO VISIBILITY.


NDZ001>003-009>011-017-170100-
NORTHWEST NORTH DAKOTA

CITY           SKY/WX    TMP DP  RH WIND       PRES   REMARKS
WILLISTON      SUNNY     82  52  35 SE5       29.87F
6HR MIN TEMP:  75; 6HR MAX TEMP:  84;

MINOT          SUNNY     79  51  37 N6        29.89F
MINOT AFB      SUNNY     78  47  33 N5        29.87F
$$

NDZ018>021-031>035-040>046-170100-
SOUTHWEST NORTH DAKOTA

CITY           SKY/WX    TMP DP  RH WIND       PRES   REMARKS
BISMARCK       PTSUNNY   78  52  40 N10       29.90S
6HR MIN TEMP:  72; 6HR MAX TEMP:  80;

DICKINSON      SUNNY     80  50  34 CALM      29.91F
GARRISON         N/A     76  51  41 VRB7      29.89F
6HR MIN TEMP:  73; 6HR MAX TEMP:  79;

HETTINGER ARPT SUNNY     78  48  34 CALM      29.95F
$$

NDZ004>008-012>016-024-026-027-054-170100-
NORTHEAST NORTH DAKOTA

CITY           SKY/WX    TMP DP  RH WIND       PRES   REMARKS
GRAND FORKS    CLOUDY    69  65  86 N9        29.82F
GRND FRKS AFB  CLOUDY    69  62  81 NE7       29.84F
DEVILS LAKE    MOSUNNY   74  57  55 NW12      29.87F
$$

NDZ022-023-025-028>030-036>039-047>053-170100-
SOUTHEAST NORTH DAKOTA

CITY           SKY/WX    TMP DP  RH WIND       PRES   REMARKS
FARGO          LGT RAIN  67  66  97 N10       29.81S
6HR MIN TEMP:  67; 6HR MAX TEMP:  68; 6HR PCP:  0.13;

JAMESTOWN      CLOUDY    70  61  73 N8        29.85S
$$





USA.gov is the U.S. government's official web portal to all federal, state and local government web resources and services.